Location: Chittendens Corners
(41.2320°N, 81.4940°W)
Time: 22:56:54
(UTC+00:00)

ATLAS 2AS CENTAUR R/B - Pass Details

Date: 29 October 2020
Orbit: 939 x 1273 km, 63.7° (Epoch: 23 November)

Event Time Altitude Azimuth Distance (km) Brightness Sun altitude
Rises 23:36:25 0° 327° (NNW) 4,165 6.2 -14.1°
Reaches altitude 10° 23:39:52 10° 339° (NNW) 3,153 5.3 -14.7°
Maximum altitude 23:45:59 26° 34° (NNE) 2,104 3.9 -15.9°
Enters shadow 23:48:38 21° 65° (ENE) 2,292 3.9 -16.3°
